| time (UTC) | temp C | wind direction | speed KPH | gust KPH | rain 1hr cm | rain 24hr cm | rain mn cm | humidity % | barometer mb |
| 20260506211529 | 17 | 223 | 9.7 | 0.0 | 0.00 | 0.00 | 0.00 | 96 | 970.3 |
| 20260506204535 | 17 | 213 | 1.6 | 0.0 | 0.00 | 0.00 | 0.48 | 98 | 970.3 |
| 20260506203030 | 17 | 212 | 3.2 | 0.0 | 0.00 | 0.00 | 0.48 | 98 | 970.3 |
| 20260506201533 | 17 | 214 | 6.4 | 0.0 | 0.00 | 0.00 | 0.48 | 98 | 970.1 |
| 20260506200038 | 17 | 215 | 11.3 | 0.0 | 0.00 | 0.00 | 0.48 | 99 | 970.2 |
| 20260506194526 | 16 | 218 | 8.0 | 0.0 | 0.00 | 0.00 | 0.48 | 99 | 970.4 |
| 20260506193028 | 16 | 198 | 11.3 | 0.0 | 0.00 | 0.00 | 0.48 | 100 | 970.6 |
| 20260506191525 | 16 | 217 | 8.0 | 0.0 | 0.00 | 0.00 | 0.48 | 100 | 970.6 |
| 20260506190023 | 16 | 215 | 6.4 | 0.0 | 0.00 | 0.00 | 0.48 | 100 | 970.8 |
| 20260506184521 | 15 | 200 | 8.0 | 0.0 | 0.00 | 0.00 | 0.48 | 100 | 970.8 |
| 20260506183021 | 15 | 222 | 9.7 | 0.0 | 0.00 | 0.00 | 0.48 | 100 | 971.0 |
| 20260506181520 | 15 | 221 | 8.0 | 0.0 | 0.00 | 0.00 | 0.48 | 100 | 971.4 |
| 20260506180019 | 15 | 220 | 9.7 | 0.0 | 0.00 | 0.00 | 0.48 | 100 | 971.4 |
| 20260506174517 | 15 | 227 | 14.5 | 0.0 | 0.00 | 0.00 | 0.48 | 100 | 971.3 |
| 20260506173022 | 15 | 239 | 16.1 | 0.0 | 0.00 | 0.00 | 0.48 | 100 | 971.3 |
| 20260506171516 | 15 | 186 | 11.3 | 0.0 | 0.00 | 0.00 | 0.48 | 100 | 971.3 |
| 20260506170014 | 15 | 226 | 12.9 | 0.0 | 0.00 | 0.00 | 0.48 | 100 | 971.4 |
| 20260506164514 | 15 | 218 | 19.3 | 0.0 | 0.00 | 0.00 | 0.48 | 100 | 971.5 |
| 20260506163011 | 15 | 180 | 16.1 | 0.0 | 0.00 | 0.00 | 0.48 | 100 | 971.4 |
| 20260506161611 | 15 | 176 | 14.5 | 0.0 | 0.00 | 0.00 | 0.46 | 100 | 971.4 |
| 20260506160014 | 15 | 188 | 11.3 | 0.0 | 0.00 | 0.00 | 0.43 | 100 | 971.6 |
| 20260506154506 | 15 | 206 | 9.7 | 0.0 | 0.00 | 0.00 | 0.38 | 100 | 972.4 |
| 20260506153004 | 15 | 210 | 8.0 | 0.0 | 0.00 | 0.00 | 0.33 | 100 | 972.6 |
| 20260506151504 | 15 | 221 | 11.3 | 0.0 | 0.00 | 0.00 | 0.25 | 100 | 972.8 |
| 20260506150002 | 15 | 205 | 11.3 | 0.0 | 0.00 | 0.00 | 0.20 | 100 | 972.5 |
| 20260506144559 | 15 | 196 | 11.3 | 0.0 | 0.00 | 0.00 | 0.15 | 100 | 972.3 |
| 20260506143057 | 15 | 182 | 9.7 | 0.0 | 0.00 | 0.00 | 0.13 | 99 | 972.6 |
| 20260506141610 | 15 | 211 | 11.3 | 0.0 | 0.00 | 0.00 | 0.10 | 98 | 972.5 |
| 20260506140053 | 16 | 175 | 9.7 | 0.0 | 0.00 | 0.00 | 0.05 | 95 | 972.4 |
| 20260506134550 | 16 | 180 | 8.0 | 0.0 | 0.00 | 0.00 | 0.00 | 94 | 972.4 |
| 20260506133048 | 16 | 230 | 8.0 | 0.0 | 0.00 | 0.00 | 0.00 | 94 | 972.2 |
| 20260506131547 | 16 | 202 | 6.4 | 0.0 | 0.00 | 0.00 | 0.00 | 94 | 972.5 |
| 20260506130045 | 16 | 196 | 9.7 | 0.0 | 0.00 | 0.00 | 0.00 | 92 | 972.5 |
| 20260506124543 | 17 | 244 | 9.7 | 0.0 | 0.00 | 0.00 | 0.00 | 90 | 972.6 |
| 20260506123045 | 17 | 227 | 8.0 | 0.0 | 0.00 | 0.00 | 0.00 | 90 | 972.7 |
| 20260506121551 | 17 | 214 | 8.0 | 0.0 | 0.00 | 0.00 | 0.00 | 90 | 972.6 |
| 20260506120107 | 17 | 227 | 9.7 | 0.0 | 0.00 | 0.00 | 0.00 | 90 | 972.4 |
| 20260506114545 | 17 | 221 | 6.4 | 0.0 | 0.00 | 0.00 | 0.00 | 90 | 972.2 |
| 20260506113040 | 17 | 156 | 14.5 | 0.0 | 0.00 | 0.00 | 0.00 | 90 | 972.0 |
| 20260506111540 | 17 | 176 | 12.9 | 0.0 | 0.00 | 0.00 | 0.00 | 90 | 972.1 |
| 20260506110036 | 16 | 185 | 14.5 | 0.0 | 0.00 | 0.00 | 0.00 | 90 | 972.0 |
| 20260506104534 | 16 | 179 | 14.5 | 0.0 | 0.00 | 0.00 | 0.00 | 90 | 971.9 |
| 20260506103035 | 17 | 205 | 14.5 | 0.0 | 0.00 | 0.00 | 0.00 | 89 | 971.8 |
| 20260506101532 | 17 | 227 | 12.9 | 0.0 | 0.00 | 0.00 | 0.00 | 89 | 971.9 |
| 20260506100032 | 17 | 215 | 12.9 | 0.0 | 0.00 | 0.00 | 0.00 | 88 | 971.8 |
| 20260506094533 | 17 | 214 | 14.5 | 0.0 | 0.00 | 0.00 | 0.00 | 88 | 971.6 |
| 20260506093040 | 17 | 220 | 12.9 | 0.0 | 0.00 | 0.00 | 0.00 | 87 | 971.7 |
| 20260506091523 | 17 | 229 | 12.9 | 0.0 | 0.00 | 0.00 | 0.00 | 87 | 971.7 |
| 20260506090019 | 17 | 155 | 16.1 | 0.0 | 0.00 | 0.00 | 0.00 | 87 | 971.7 |
| 20260506084517 | 17 | 192 | 16.1 | 0.0 | 0.00 | 0.00 | 0.00 | 86 | 971.8 |
| 20260506083015 | 18 | 198 | 14.5 | 0.0 | 0.00 | 0.00 | 0.00 | 85 | 971.7 |
| 20260506081513 | 18 | 223 | 12.9 | 0.0 | 0.00 | 0.00 | 0.00 | 85 | 971.8 |
| 20260506073006 | 18 | 192 | 14.5 | 0.0 | 0.00 | 0.00 | 0.00 | 82 | 972.0 |
| 20260506071507 | 18 | 200 | 12.9 | 0.0 | 0.00 | 0.00 | 0.00 | 82 | 972.1 |
| 20260506070118 | 18 | 170 | 11.3 | 0.0 | 0.00 | 0.00 | 0.00 | 81 | 972.2 |
| 20260506061553 | 18 | 192 | 9.7 | 0.0 | 0.00 | 0.00 | 0.00 | 78 | 972.7 |
| 20260506044552 | 19 | 229 | 11.3 | 0.0 | 0.00 | 0.00 | 0.00 | 73 | 973.0 |
| 20260506043040 | 19 | 197 | 12.9 | 0.0 | 0.00 | 0.00 | 0.00 | 73 | 973.0 |
| 20260506041548 | 19 | 201 | 12.9 | 0.0 | 0.00 | 0.00 | 0.00 | 73 | 973.0 |
| 20260506040041 | 19 | 196 | 14.5 | 0.0 | 0.00 | 0.00 | 0.00 | 72 | 972.9 |
| 20260506034536 | 19 | 225 | 11.3 | 0.0 | 0.00 | 0.00 | 0.00 | 72 | 972.9 |
| 20260506033034 | 19 | 167 | 11.3 | 0.0 | 0.00 | 0.00 | 0.00 | 72 | 972.9 |
| 20260506031546 | 19 | 163 | 9.7 | 0.0 | 0.00 | 0.00 | 0.00 | 72 | 972.9 |
| 20260506030038 | 19 | 189 | 9.7 | 0.0 | 0.00 | 0.00 | 0.00 | 71 | 972.9 |
| 20260506024536 | 19 | 175 | 6.4 | 0.0 | 0.00 | 0.00 | 0.00 | 71 | 972.9 |
| 20260506023036 | 19 | 215 | 6.4 | 0.0 | 0.00 | 0.00 | 0.00 | 70 | 973.0 |
| 20260506021533 | 20 | 196 | 6.4 | 0.0 | 0.00 | 0.00 | 0.00 | 69 | 973.0 |
| 20260506020032 | 20 | 190 | 4.8 | 0.0 | 0.00 | 0.00 | 0.00 | 68 | 972.9 |
| 20260506014532 | 20 | 182 | 6.4 | 0.0 | 0.00 | 0.00 | 0.00 | 67 | 972.8 |
| 20260506013031 | 20 | 211 | 8.0 | 0.0 | 0.00 | 0.00 | 0.00 | 66 | 972.8 |
| 20260506011531 | 21 | 194 | 6.4 | 0.0 | 0.00 | 0.00 | 0.00 | 66 | 972.6 |
| 20260506010033 | 21 | 202 | 3.2 | 0.0 | 0.00 | 0.00 | 0.00 | 64 | 972.4 |
| 20260506004548 | 21 | 184 | 1.6 | 0.0 | 0.00 | 0.00 | 0.00 | 62 | 972.4 |
| 20260506003030 | 22 | 195 | 4.8 | 0.0 | 0.00 | 0.00 | 0.00 | 60 | 972.3 |
| 20260506001529 | 22 | 221 | 8.0 | 0.0 | 0.00 | 0.00 | 0.00 | 59 | 972.1 |
| 20260506000028 | 22 | 206 | 9.7 | 0.0 | 0.00 | 0.00 | 0.00 | 59 | 972.0 |
| 20260505234601 | 23 | 215 | 9.7 | 0.0 | 0.00 | 0.00 | 0.00 | 58 | 972.0 |
| 20260505233028 | 23 | 186 | 11.3 | 0.0 | 0.00 | 0.00 | 0.00 | 57 | 971.7 |
| 20260505231529 | 23 | 205 | 14.5 | 0.0 | 0.00 | 0.00 | 0.00 | 57 | 971.9 |
| 20260505230027 | 23 | 194 | 14.5 | 0.0 | 0.00 | 0.00 | 0.00 | 56 | 971.8 |
| 20260505224530 | 24 | 203 | 16.1 | 0.0 | 0.00 | 0.00 | 0.00 | 55 | 971.8 |
| 20260505223025 | 24 | 198 | 19.3 | 0.0 | 0.00 | 0.00 | 0.00 | 55 | 971.7 |
| 20260505221525 | 25 | 187 | 16.1 | 0.0 | 0.00 | 0.00 | 0.00 | 56 | 971.8 |
| 20260505220026 | 25 | 202 | 17.7 | 0.0 | 0.00 | 0.00 | 0.00 | 55 | 971.7 |
| 20260505214525 | 25 | 202 | 19.3 | 0.0 | 0.00 | 0.00 | 0.00 | 57 | 971.6 |
| 20260505213023 | 25 | 205 | 24.1 | 0.0 | 0.00 | 0.00 | 0.00 | 57 | 971.6 |